• En España
  • Lista de países
  • Para 7 días
  • Temperatura del agua
  • Mapa Satelital
  • El tiempo en el mapa
  • Informadores
  • user-avatar
    Iniciar sesión

    Tiempo cada hora Santa Fe

    Hoy, 22 Febrero, Jueves

    Tiempo Temperatura Precipitaciones Viento Presión Humedad
    00:00 +20°C° 0 mm 2 mps 759 mmHg 42%
    01:00 +20°C° 0 mm 2 mps 760 mmHg 44%
    02:00 +19°C° 0 mm 2 mps 759 mmHg 48%
    03:00 +19°C° 0 mm 2 mps 760 mmHg 51%
    04:00 +18°C° 0 mm 2 mps 760 mmHg 55%
    05:00 +19°C° 0 mm 1 mps 760 mmHg 58%
    06:00 +20°C° 0 mm 2 mps 761 mmHg 55%
    07:00 +23°C° 0 mm 2 mps 761 mmHg 52%
    08:00 +24°C° 0 mm 2 mps 762 mmHg 49%
    09:00 +27°C° 0 mm 2 mps 761 mmHg 42%
    10:00 +29°C° 0 mm 2 mps 761 mmHg 34%
    11:00 +31°C° 0 mm 2 mps 761 mmHg 27%
    12:00 +34°C° 0 mm 2 mps 761 mmHg 24%
    13:00 +35°C° 0 mm 2 mps 760 mmHg 22%
    14:00 +36°C° 0 mm 2 mps 759 mmHg 19%
    15:00 +36°C° 0 mm 2 mps 759 mmHg 19%
    16:00 +36°C° 0 mm 3 mps 758 mmHg 18%
    17:00 +36°C° 0 mm 3 mps 758 mmHg 18%
    18:00 +33°C° 0 mm 3 mps 758 mmHg 21%
    19:00 +30°C° 0 mm 3 mps 758 mmHg 24%
    20:00 +27°C° 0 mm 3 mps 758 mmHg 27%
    21:00 +26°C° 0 mm 3 mps 758 mmHg 29%
    22:00 +25°C° 0 mm 3 mps 759 mmHg 31%
    23:00 +25°C° 0 mm 3 mps 759 mmHg 32%

    Mañana, 23 Febrero, Viernes

    Tiempo Temperatura Precipitaciones Viento Presión Humedad
    00:00 +24°C° 0 mm 3 mps 759 mmHg 34%
    01:00 +22°C° 0 mm 3 mps 759 mmHg 35%
    02:00 +21°C° 0 mm 3 mps 759 mmHg 37%
    03:00 +20°C° 0 mm 2 mps 759 mmHg 40%
    04:00 +20°C° 0 mm 2 mps 759 mmHg 44%
    05:00 +19°C° 0 mm 2 mps 760 mmHg 47%
    06:00 +21°C° 0 mm 2 mps 760 mmHg 44%
    07:00 +24°C° 0 mm 3 mps 760 mmHg 40%
    08:00 +26°C° 0 mm 3 mps 760 mmHg 36%
    09:00 +29°C° 0 mm 3 mps 760 mmHg 31%
    10:00 +31°C° 0 mm 3 mps 760 mmHg 26%
    11:00 +35°C° 0 mm 3 mps 760 mmHg 21%
    12:00 +36°C° 0 mm 3 mps 759 mmHg 19%
    13:00 +37°C° 0 mm 3 mps 759 mmHg 16%
    14:00 +38°C° 0 mm 3 mps 758 mmHg 14%
    15:00 +38°C° 0 mm 3 mps 758 mmHg 14%
    16:00 +38°C° 0 mm 4 mps 757 mmHg 14%
    17:00 +38°C° 0 mm 4 mps 757 mmHg 14%
    18:00 +35°C° 0 mm 4 mps 757 mmHg 17%
    19:00 +33°C° 0 mm 4 mps 758 mmHg 21%
    20:00 +29°C° 0 mm 5 mps 758 mmHg 24%
    21:00 +28°C° 0 mm 4 mps 759 mmHg 26%
    22:00 +27°C° 0 mm 4 mps 759 mmHg 27%
    23:00 +26°C° 0 mm 4 mps 760 mmHg 29%

    Pasado mañana, 24 Febrero, Sábado

    Tiempo Temperatura Precipitaciones Viento Presión Humedad
    00:00 +25°C° 0 mm 4 mps 760 mmHg 33%
    01:00 +25°C° 0 mm 4 mps 760 mmHg 36%
    02:00 +24°C° 0 mm 3 mps 760 mmHg 40%
    03:00 +22°C° 0 mm 3 mps 760 mmHg 45%
    04:00 +21°C° 0 mm 3 mps 760 mmHg 49%
    05:00 +21°C° 0 mm 3 mps 760 mmHg 54%
    06:00 +22°C° 0 mm 3 mps 761 mmHg 53%
    07:00 +23°C° 0 mm 4 mps 761 mmHg 52%
    08:00 +26°C° 0 mm 4 mps 761 mmHg 51%
    09:00 +28°C° 0 mm 4 mps 761 mmHg 44%
    10:00 +31°C° 0 mm 3 mps 761 mmHg 36%
    11:00 +34°C° 0 mm 3 mps 761 mmHg 29%
    12:00 +35°C° 0 mm 3 mps 760 mmHg 25%
    13:00 +36°C° 0 mm 4 mps 760 mmHg 21%
    14:00 +38°C° 0 mm 4 mps 759 mmHg 17%
    15:00 +37°C° 0 mm 4 mps 759 mmHg 16%
    16:00 +37°C° 0 mm 5 mps 758 mmHg 14%
    17:00 +37°C° 0 mm 5 mps 758 mmHg 13%
    18:00 +35°C° 0 mm 5 mps 758 mmHg 16%
    19:00 +32°C° 0 mm 4 mps 759 mmHg 19%
    20:00 +29°C° 0 mm 3 mps 759 mmHg 22%
    21:00 +28°C° 0 mm 4 mps 759 mmHg 25%
    22:00 +28°C° 0 mm 4 mps 760 mmHg 29%
    23:00 +27°C° 0 mm 4 mps 760 mmHg 32%

    25 Febrero, Domingo

    Tiempo Temperatura Precipitaciones Viento Presión Humedad
    00:00 +26°C° 0 mm 4 mps 760 mmHg 36%
    01:00 +26°C° 0 mm 4 mps 760 mmHg 39%
    02:00 +25°C° 0 mm 3 mps 760 mmHg 43%
    03:00 +24°C° 0 mm 3 mps 760 mmHg 46%
    04:00 +22°C° 0 mm 3 mps 760 mmHg 50%
    05:00 +22°C° 0 mm 3 mps 761 mmHg 54%
    06:00 +24°C° 0 mm 3 mps 761 mmHg 50%
    07:00 +26°C° 0 mm 4 mps 761 mmHg 47%
    08:00 +28°C° 0 mm 4 mps 762 mmHg 44%
    09:00 +30°C° 0 mm 4 mps 761 mmHg 37%
    10:00 +34°C° 0 mm 4 mps 761 mmHg 31%
    11:00 +36°C° 0 mm 4 mps 761 mmHg 24%
    12:00 +37°C° 0 mm 4 mps 760 mmHg 22%
    13:00 +38°C° 0 mm 4 mps 759 mmHg 20%
    14:00 +40°C° 0 mm 5 mps 758 mmHg 17%
    15:00 +40°C° 0 mm 5 mps 758 mmHg 17%
    16:00 +40°C° 0 mm 5 mps 757 mmHg 17%
    17:00 +39°C° 0 mm 6 mps 757 mmHg 17%
    18:00 +36°C° 0 mm 5 mps 757 mmHg 20%
    19:00 +34°C° 0 mm 5 mps 758 mmHg 23%
    20:00 +32°C° 0 mm 5 mps 758 mmHg 26%
    21:00 +30°C° 0 mm 4 mps 758 mmHg 27%
    22:00 +29°C° 0 mm 4 mps 759 mmHg 29%
    23:00 +28°C° 0 mm 4 mps 759 mmHg 30%

    26 Febrero, Lunes

    Tiempo Temperatura Precipitaciones Viento Presión Humedad
    00:00 +27°C° 0 mm 4 mps 759 mmHg 31%
    01:00 +26°C° 0 mm 4 mps 759 mmHg 32%
    02:00 +25°C° 0 mm 3 mps 759 mmHg 33%
    03:00 +24°C° 0 mm 3 mps 759 mmHg 36%
    04:00 +22°C° 0 mm 3 mps 759 mmHg 38%
    05:00 +21°C° 0 mm 3 mps 759 mmHg 41%
    06:00 +24°C° 0 mm 3 mps 759 mmHg 39%
    07:00 +26°C° 0 mm 3 mps 760 mmHg 37%
    08:00 +27°C° 0 mm 3 mps 760 mmHg 35%
    09:00 +30°C° 0 mm 3 mps 760 mmHg 30%
    10:00 +33°C° 0 mm 3 mps 759 mmHg 24%
    11:00 +36°C° 0 mm 3 mps 759 mmHg 18%
    12:00 +37°C° 0 mm 4 mps 758 mmHg 17%
    13:00 +38°C° 0 mm 4 mps 757 mmHg 15%
    14:00 +40°C° 0 mm 4 mps 756 mmHg 13%
    15:00 +40°C° 0 mm 4 mps 756 mmHg 13%
    16:00 +40°C° 0 mm 4 mps 755 mmHg 13%
    17:00 +38°C° 0 mm 4 mps 755 mmHg 13%
    18:00 +36°C° 0 mm 4 mps 755 mmHg 15%
    19:00 +33°C° 0 mm 4 mps 756 mmHg 18%
    20:00 +29°C° 0 mm 4 mps 756 mmHg 20%
    21:00 +28°C° 0 mm 4 mps 756 mmHg 23%
    22:00 +27°C° 0 mm 4 mps 756 mmHg 25%
    23:00 +26°C° 0 mm 4 mps 756 mmHg 27%

    27 Febrero, Martes

    Tiempo Temperatura Precipitaciones Viento Presión Humedad
    00:00 +26°C° 0 mm 4 mps 756 mmHg 30%
    01:00 +25°C° 0 mm 4 mps 756 mmHg 32%
    02:00 +23°C° 0 mm 4 mps 756 mmHg 35%
    03:00 +22°C° 0 mm 3 mps 756 mmHg 42%
    04:00 +22°C° 0 mm 3 mps 757 mmHg 49%
    05:00 +21°C° 0 mm 3 mps 757 mmHg 56%
    06:00 +24°C° 0 mm 3 mps 757 mmHg 54%
    07:00 +25°C° 0 mm 4 mps 757 mmHg 52%
    08:00 +27°C° 0 mm 4 mps 758 mmHg 50%
    09:00 +29°C° 0 mm 3 mps 757 mmHg 41%
    10:00 +33°C° 0 mm 3 mps 757 mmHg 32%
    11:00 +36°C° 0 mm 3 mps 757 mmHg 24%
    12:00 +37°C° 0 mm 2 mps 756 mmHg 21%
    13:00 +39°C° 0 mm 2 mps 755 mmHg 18%
    14:00 +40°C° 0 mm 1 mps 755 mmHg 15%
    15:00 +40°C° 0 mm 2 mps 754 mmHg 15%
    16:00 +39°C° 0 mm 2 mps 754 mmHg 15%
    17:00 +39°C° 0 mm 2 mps 754 mmHg 15%
    18:00 +37°C° 0 mm 2 mps 754 mmHg 17%
    19:00 +34°C° 0 mm 2 mps 754 mmHg 20%
    20:00 +30°C° 0 mm 2 mps 755 mmHg 23%
    21:00 +30°C° 0 mm 3 mps 755 mmHg 26%
    22:00 +29°C° 0 mm 4 mps 755 mmHg 29%
    23:00 +28°C° 0 mm 4 mps 756 mmHg 31%
    Mostrar más